Weather History for Hermiston, OR

Change the Weather History Date:

Sunday, June 23, 2013

  Actual Average Record
Temperature  
Mean Temperature 66 °F -  
Max Temperature 80 °F 83 °F 106 °F (1958)
Min Temperature 55 °F 54 °F 42 °F (1935)
Cooling Degree Days 2    
Growing Degree Days 16 (Base 50)    
Moisture  
Dew Point 51 °F    
Average Humidity 61    
Maximum Humidity 93    
Minimum Humidity 32    
Precipitation  
Precipitation 0.07 in - - ()
Sea Level Pressure  
Sea Level Pressure 29.72 in    
Wind  
Wind Speed 5 mph (NE)    
Max Wind Speed 12 mph    
Max Gust Speed -    
Visibility 10 miles    
Events Rain    
Averages and records for this station are not official NWS values.
T = Trace of Precipitation, MM = Missing Value Source: NWS Daily Summary

Daily Weather History Graph

Daily Weather History Graph

Search for Another Location

Airport:

Trip Planner

Search our weather history database for the weather conditions in past years. The results will help you decide how hot, cold, wet, or windy it might be!

Date:

Astronomy

Jun. 23, 2013 Rise Set
Actual Time 5:07 AM PDT 8:51 PM PDT
Civil Twilight 4:29 AM PDT 9:29 PM PDT
Nautical Twilight 3:37 AM PDT 10:21 PM PDT
Astronomical Twilight 2:26 AM PDT 11:32 PM PDT
Moon 9:02 PM PDT (6/23) 5:34 AM PDT (6/23)
Length of Visible Light 17h 00m
Length of Day
15h 43m
Full, 100% of the Moon is Illuminated
Jun 23
Full
Jun 29
Last Quarter
Jul 8
New
Jul 15
First Quarter
Jul 22
Full

Hourly Weather History & Observations

Time (PDT) Temp. Dew Point Humidity Pressure Visibility Wind Dir Wind Speed Gust Speed Precip Events Conditions
12:53 AM 55.9 °F 46.9 °F 72% 29.83 in 10.0 mi SE 5.8 mph - N/A   Clear
1:53 AM 55.9 °F 46.9 °F 72% 29.82 in 10.0 mi SE 6.9 mph - N/A   Clear
2:53 AM 55.0 °F 46.9 °F 74% 29.82 in 10.0 mi Calm Calm - N/A   Partly Cloudy
3:53 AM 55.0 °F 48.9 °F 80% 29.81 in 10.0 mi ESE 3.5 mph - N/A   Overcast
4:53 AM 55.0 °F 48.0 °F 77% 29.80 in 10.0 mi Calm Calm - N/A   Scattered Clouds
5:53 AM 55.9 °F 48.9 °F 77% 29.79 in 10.0 mi East 3.5 mph - N/A   Overcast
6:53 AM 59.0 °F 48.9 °F 69% 29.79 in 10.0 mi Calm Calm - N/A   Overcast
7:53 AM 62.1 °F 48.9 °F 62% 29.78 in 10.0 mi ENE 3.5 mph - N/A   Scattered Clouds
8:53 AM 66.0 °F 48.9 °F 54% 29.77 in 10.0 mi Calm Calm - N/A   Overcast
9:53 AM 70.0 °F 51.1 °F 51% 29.76 in 10.0 mi North 4.6 mph - N/A   Partly Cloudy
10:53 AM 73.0 °F 50.0 °F 44% 29.74 in 10.0 mi Variable 5.8 mph - N/A   Mostly Cloudy
11:53 AM 72.0 °F 51.1 °F 48% 29.72 in 10.0 mi NE 10.4 mph - 0.00 in Rain Light Rain
12:53 PM 78.1 °F 48.9 °F 36% 29.70 in 10.0 mi NNE 11.5 mph - 0.00 in   Mostly Cloudy
1:53 PM 75.9 °F 48.9 °F 38% 29.70 in 10.0 mi NE 10.4 mph - N/A   Overcast
2:53 PM 78.1 °F 48.9 °F 36% 29.67 in 10.0 mi NE 10.4 mph - 0.00 in   Mostly Cloudy
3:53 PM 78.1 °F 46.0 °F 32% 29.65 in 10.0 mi NE 9.2 mph - N/A   Overcast
4:53 PM 77.0 °F 48.0 °F 36% 29.63 in 10.0 mi NNW 6.9 mph - N/A   Overcast
5:53 PM 77.0 °F 50.0 °F 39% 29.61 in 10.0 mi NNW 4.6 mph - N/A   Overcast
6:53 PM 73.9 °F 48.9 °F 41% 29.62 in 10.0 mi WNW 8.1 mph - N/A   Overcast
7:53 PM 64.9 °F 57.9 °F 78% 29.65 in 4.0 mi WSW 6.9 mph - 0.01 in Rain Light Rain
8:53 PM 63.0 °F 59.0 °F 87% 29.65 in 10.0 mi West 5.8 mph - 0.02 in Rain Light Rain
9:53 PM 63.0 °F 59.0 °F 87% 29.65 in 8.0 mi WSW 6.9 mph - 0.03 in Rain Light Rain
10:53 PM 61.0 °F 59.0 °F 93% 29.65 in 10.0 mi South 4.6 mph - 0.01 in Rain Light Rain
11:53 PM 61.0 °F 57.9 °F 90% 29.64 in 10.0 mi ESE 3.5 mph - 0.00 in Rain Light Rain